Regional Weather Roundup
Issued by NWS

Home | Current Version | Previous Version | Graphics & Text | Print | Product List | Glossary On
Versions: 1 2 3 4 5 6 7 8 9 10 11 12 13 14 15 16 17 18 19 20 21 22 23 24 25 26 27 28 29 30 31 32 33 34 35 36 37 38 39 40 41 42 43 44 45 46 47 48 49 50
126
ASUS45 KBOU 101610
RWRCO

WEATHER ROUNDUP FOR COLORADO
NATIONAL WEATHER SERVICE DENVER/BOULDER CO
900 AM MST SUN DEC 10 2017

NOTE: "FAIR" INDICATES FEW OR NO CLOUDS BELOW 12000 FEET WITH NO
SIGNIFICANT WEATHER AND/OR OBSTRUCTIONS TO VISIBILITY.

COZ001>005-013-030-031-101700-
...NORTHWEST COLORADO...

CITY           SKY/WX    TMP DP  RH WIND       PRES   REMARKS
CRAIG          FAIR       9   6  88 CALM      30.60S
HAYDEN         FAIR      19   9  65 E13       30.60S WCI   6
MEEKER         FAIR      21   8  57 CALM      30.59S
RABBIT EARS PA FAIR      27   0  31 CALM      30.57S
STEAMBOAT SPGS FAIR      12   9  85 CALM      30.60S
WALDEN         FAIR       9   0  66 CALM      30.58S
$$

COZ006>008-011-101700-
...WEST CENTRAL VALLEYS...

CITY           SKY/WX    TMP DP  RH WIND       PRES   REMARKS
GRAND JUNCTION FAIR      27   8  44 E5        30.61R WCI  22
MONTROSE       FAIR      22   2  42 SE5       30.64R WCI  16
EAGLE          NOT AVBL
RIFLE          FAIR      20   8  60 W3        30.64R
DELTA          FAIR      18   2  49 CALM      30.64S
NUCLA          FAIR      21  -8  27 SE6       30.63R WCI  14
$$

COZ017>023-064>068-101700-
...SOUTHWEST COLORADO...

CITY           SKY/WX    TMP DP  RH WIND       PRES   REMARKS
DURANGO        FAIR      23   3  42 CALM      30.54S
CORTEZ         FAIR      22  -1  36 CALM      30.57R
PAGOSA SPRINGS FAIR      31  -6  20 CALM      30.56R
TELLURIDE      FAIR      31 -14  14 SE5       30.60R WCI  26
WOLF CREEK PAS FAIR      30 -33   5 CALM      30.67S
$$

COZ009-010-012-014-032>034-037-058>063-101700-
...CENTRAL COLORADO...

CITY           SKY/WX    TMP DP  RH WIND       PRES   REMARKS
ASPEN          FAIR      23   3  42 SE3       30.59R
BUENA VISTA    FAIR      29  -2  26 CALM      30.55S
COPPER MTN     NOT AVBL
BERTHOUD PASS  FAIR      18   5  57 NW15G23   30.58R WCI   3
COTTONWOOD PAS FAIR      39 -20   7 SE3       30.55S
GUNNISON       FAIR       6  -2  69 CALM      30.68R
KREMMLING      HAZE       9   3  78 CALM      30.71R VSB 1/4
LEADVILLE      FAIR      22 -11  23 NE9       30.56R WCI  12
MONARCH PASS   FAIR      28 -24   9 W9        30.70R WCI  20
SALIDA         FAIR      27  -2  29 NW3       30.62S
SUNLIGHT       FAIR      27 -18  13 CALM      30.64R
WILKERSON PASS FAIR      30 -31   6 N6        30.58R WCI  24
$$

COZ069>075-101700-
...SAN LUIS VALLEY/SANGRE DE CRISTO MOUNTAINS...

CITY           SKY/WX    TMP DP  RH WIND       PRES   REMARKS
ALAMOSA        FAIR      17   1  49 SW5       30.57R WCI  10
DEL NORTE      FAIR      28 -10  18 W13       30.57S WCI  17
LA VETA PASS   FAIR      30  -8  19 SW15        N/A  WCI  19
SAGUACHE       FAIR      27  -6  24 CALM      30.57S
$$

COZ035-036-038>040-101700-
...NORTHERN COLORADO FRONT RANGE...

CITY           SKY/WX    TMP DP  RH WIND       PRES   REMARKS
DENVER INTL AP FAIR      43  -3  14 SW12      30.40S
DMNS CITY PARK NOT AVBL
AURORA         MOSUNNY   42  -2  15 SW10      30.42R
FRONT RANGE AP SUNNY     46  -2  13 SW9       30.41R
ERIE MUNI ARPT FAIR      33   6  32 CALM      30.47R
BOULDER MUN AP FAIR      41   1  19 CALM      30.41S
CENTENNIAL     FAIR      37   4  25 E5        30.42R
BROOMFIELD     SUNNY     39   5  24 CALM      30.41R
FORT COLLINS   FAIR      33  17  51 N3        30.42R
LONGMONT       FAIR      37  19  46 CALM      30.42S
$$

COZ041-046-047-076>085-087-088-101700-
...PIKES PEAK/PALMER DIVIDE AND SOUTHERN FOOTHILLS...

CITY           SKY/WX    TMP DP  RH WIND       PRES   REMARKS
COLO. SPRINGS  FAIR      46   2  16 CALM      30.45S
A. F. ACADEMY  FAIR      37  -4  17 N7        30.45S
SCHRIEVER AFB  FAIR      49  -5  10 CALM      30.45S
CHEYENNE MTN   FAIR      47  -5  11 SE7       30.41R
ELLICOTT         N/A    N/A N/A N/A CALM      30.43S
FALCON         FAIR      46  -7  10 SW3       30.46S
FORT CARSON    FAIR      41  -1  17 N9        30.43S
LIMON          FAIR      40   0  18 NW6       30.43R
MONUMENT HILL  FAIR      41   1  19 SW6       30.46S
CANON CITY     FAIR      45   0  15 W20G26    30.44R
WALSENBURG     FAIR      48   0  13 W12G17    30.45S
TRINIDAD       FAIR      40   4  22 W15       30.46R
$$

COZ042>045-048>051-090-091-101700-
...NORTHEAST COLORADO...

CITY           SKY/WX    TMP DP  RH WIND       PRES   REMARKS
GREELEY ARPT   FAIR      26  14  60 W6        30.42S WCI  19
AKRON          FAIR      38   1  21 W14       30.39R
BURLINGTON     FAIR      48   5  17 NW16      30.38R
WRAY           FAIR      46   3  17 NW15      30.36R
YUMA           FAIR      41   3  20 W15       30.37R
STERLING       FAIR      30  10  43 S7        30.38R WCI  23
HOLYOKE        FAIR      46   9  21 W14       30.34S
FORT MORGAN    FAIR      31   5  32 W10       30.41R WCI  23
$$

COZ086-089-092>099-101700-
...SOUTHEAST COLORADO...

CITY           SKY/WX    TMP DP  RH WIND       PRES   REMARKS
PUEBLO         FAIR      35   5  28 W9        30.45R WCI  28
LA JUNTA       FAIR      36   4  26 W9        30.45R
LAMAR          FAIR      39   4  23 W13       30.42R
SPRINGFIELD      N/A     50   6  16 NW10      30.42R
$$




USA.gov is the U.S. government's official web portal to all federal, state and local government web resources and services.